[Date Prev][Date Next][Thread Prev][Thread Next] - [Date Index][Thread Index][Author Index]

2 Line ISS Keps 11-14



ISS
1 25544U 98067A   03317.82968750 +.00021240 +00000-0 +22527-3 0 07706
2 25544 051.6314 345.6499 0006277 131.0049 220.1358 15.64026339284387


----
Via the sarex mailing list at AMSAT.ORG courtesy of AMSAT-NA.
To unsubscribe, send "unsubscribe sarex" to Majordomo@amsat.org



AMSAT Top AMSAT Home